User: anonymous   Login
Location: 476 Grange Obs.
(45.1421°N, 7.1417°E)
Time: 11:46:46
(UTC+01:00)
Language:

Envisat - Orbit

View from above orbital plane
View from above orbital plane
View from above satellite
View from above satellite

Ground track
Ground track

The orbit data is extracted from the following two-line orbital elements,

1 27386U 02009A   19318.15758531  .00000004  00000-0  14858-4 0  9998
2 27386  98.1430 331.5422 0001285  95.2394 312.0844 14.37962698927534
Epoch (UTC): 14 November 2019 03:46:55
Eccentricity: 0.0001285
inclination: 98.1430°
perigee height: 764 km
apogee height: 766 km
right ascension of ascending node: 331.5422°
argument of perigee: 95.2394°
revolutions per day: 14.37962698
mean anomaly at epoch: 312.0844°
orbit number at epoch: 92753

The dashed part of the orbit path shows where the satellite is in the earth's shadow,  

DLR